Vorticity
5 4 8 10 4 2 11 10 19 4 2 13 13 -2 8 3 8 8 4 4 12 4 11 13 13 6 9 4 4 7 5 5 7 6 6 6 7 4 4 4 4 4 4 5 5 5 6 7 7
9 7 7 6 3 2 7 14 34 5 11 1 5 16 -10 -0 -3 14 1 3 -1 3 -6 -3 18 9 9 5 4 5 5 4 6 6 6 6 5 4 5 4 4 4 4 5 5 5 6 7 7
8 9 10 7 11 8 5 -10 7 5 3 -1 8 -5 5 -2 -7 -4 11 -2 4 3 -6 -5 2 13 10 7 4 5 5 4 6 7 7 7 5 4 5 4 4 4 5 4 5 5 6 7 7
6 8 7 3 -7 0 -7 -2 4 9 -8 7 12 18 21 19 5 -8 -4 6 2 16 -0 3 -4 4 12 8 5 5 6 4 5 7 8 7 5 5 5 4 4 4 5 5 5 5 5 6 7
10 7 7 4 8 12 4 8 11 3 5 6 -6 -1 -2 11 13 7 -3 -7 4 8 -2 -9 5 2 6 10 6 5 6 4 4 6 9 6 5 5 5 4 4 4 5 5 5 5 5 5 7
12 6 3 7 5 1 -5 8 5 -1 17 16 18 14 16 6 7 6 11 5 -7 10 21 0 -5 5 4 9 8 5 7 5 4 6 10 6 5 5 5 5 4 5 5 5 5 5 5 5 6
10 7 6 7 9 4 9 6 7 7 3 7 10 7 9 12 13 11 12 7 20 -10 3 2 1 16 7 4 10 5 7 6 4 5 9 7 5 5 6 5 4 5 5 5 5 5 5 5 5
13 12 8 13 6 2 3 1 0 6 9 9 12 6 7 19 7 7 3 11 17 20 11 4 -2 5 12 6 6 7 7 6 4 5 9 7 6 5 6 5 4 4 5 4 4 4 5 5 5
4 10 5 3 3 0 3 3 6 -0 4 6 6 9 8 10 15 9 7 7 8 11 11 10 6 -0 10 12 5 9 7 6 4 4 8 7 6 5 6 5 4 5 5 4 4 4 4 4 5
6 5 10 3 4 2 9 13 11 10 10 16 12 12 10 9 12 16 10 3 10 7 8 20 10 5 1 19 7 8 7 6 4 4 7 8 6 5 5 6 5 4 4 4 4 4 4 4 4
3 2 4 13 8 7 10 10 7 9 9 7 8 7 7 8 7 9 11 17 12 7 9 15 16 4 3 -9 17 4 5 7 4 4 6 9 6 5 5 5 5 4 4 4 4 4 4 4 4
4 3 13 4 3 10 7 7 10 8 16 17 13 13 9 9 9 9 7 6 11 10 11 6 19 5 1 5 22 2 4 8 4 4 6 8 6 6 5 5 5 5 5 4 4 4 4 4 4
8 3 7 6 6 6 6 8 7 21 4 7 7 10 12 10 8 6 6 6 8 11 12 29 0 17 6 7 17 9 2 6 6 4 6 7 7 6 5 5 6 5 4 4 4 4 4 4 4
4 3 9 9 17 15 -1 6 6 6 4 8 6 2 5 8 12 17 10 7 9 13 13 26 17 9 9 5 16 10 1 5 8 4 6 7 8 7 5 5 6 5 5 4 4 5 5 4 4
1 10 11 23 -8 9 8 8 -2 12 10 6 4 5 10 6 10 16 18 10 10 13 14 25 18 11 11 9 -2 14 3 2 9 6 5 7 9 8 6 5 6 5 5 4 4 4 4 4 4
7 19 11 8 5 5 2 3 3 8 10 19 15 9 6 11 13 8 10 19 11 16 14 22 13 14 12 17 35 2 -3 5 2 7 5 6 8 7 7 6 5 5 6 5 5 5 5 5 5
29 -1 -1 1 3 23 12 0 0 3 22 19 8 6 7 12 20 12 14 16 13 16 16 20 13 13 9 -16 51 21 39 4 2 5 5 5 9 8 8 6 6 5 5 5 5 5 5 6 5
-5 -9 -7 3 -6 11 5 4 1 14 24 8 6 4 12 12 23 15 21 10 13 12 15 19 11 7 18 12 19 -73 54 11 0 4 7 6 9 8 8 6 6 6 5 5 6 6 6 5 5
1 1 1 5 14 19 9 7 9 25 13 6 8 7 13 10 15 18 16 12 14 11 24 16 6 11 2 9 8 48 -55 41 30 13 11 8 9 8 8 8 7 7 7 6 6 7 4 5 4
8 3 10 6 2 2 0 6 27 33 10 11 1 2 11 11 9 11 16 14 12 11 22 10 5 6 9 21 -1 36 26 24 -9 17 10 10 8 8 8 8 8 7 7 5 4 5 6 5 5
8 6 4 9 10 5 31 17 26 8 13 -0 1 13 9 11 10 8 12 20 16 10 19 16 1 4 7 20 -5 13 53 -18 23 14 8 10 8 8 8 8 7 7 7 7 8 7 6 5 7
5 14 14 10 18 16 -9 -1 -6 57 6 3 3 6 -1 5 14 12 10 12 21 15 16 17 3 6 14 8 11 19 29 -40 4 56 4 9 9 7 6 7 7 7 7 7 7 7 7 6 5
-0 17 3 6 -4 19 18 18 31 30 4 3 6 -6 -3 9 14 13 12 10 11 16 14 20 11 10 18 -2 -6 13 4 13 28 8 72 6 9 8 7 7 7 7 7 7 7 7 6 6 5
8 7 17 21 21 20 18 -8 34 13 1 -2 -2 -6 -11 8 21 12 14 14 6 16 13 15 15 17 11 -3 15 5 29 13 2 8 63 -8 9 10 6 7 7 7 8 8 8 7 7 7 7
34 16 14 8 8 2 37 20 -43 46 13 2 4 1 -5 -24 -3 19 15 -4 13 12 10 10 17 16 16 -1 16 4 41 -9 6 -4 13 15 2 10 7 7 7 7 8 8 8 7 7 7 7
-13 7 -18 11 9 -2 8 11 20 48 10 10 8 7 3 -13 -22 -2 23 19 4 12 18 4 10 16 26 -4 10 4 -7 6 14 1 23 17 -3 8 10 8 7 8 8 8 7 7 7 7 7
-4 9 6 11 14 18 3 9 24 7 -3 4 3 5 0 0 16 -26 16 18 18 9 10 19 3 15 12 21 6 9 24 -12 13 24 7 25 17 5 8 8 8 7 7 7 7 7 7 7 6
11 18 20 17 10 9 28 4 13 9 15 7 5 5 -1 -2 4 5 -4 16 17 16 5 30 12 12 15 11 15 5 -12 -8 -2 22 32 25 7 4 4 4 4 6 6 6 6 6 6 6 6
-2 -17 -2 13 9 4 2 1 71 -5 -5 -9 -12 -0 3 1 7 3 -4 20 10 16 12 30 15 5 17 13 6 13 -19 21 -1 -2 22 14 -6 -20 19 6 3 5 5 5 5 5 6 5 6
31 42 50 25 4 -13 1 12 -34 4 4 -3 -4 7 8 5 1 -6 5 20 9 12 12 28 12 17 13 13 7 4 21 4 -0 -18 0 8 31 -5 20 30 10 6 7 8 6 6 6 6 6
Height
3111 3111 3112 3113 3119 3115 3115 3116 3116 3117 3119 3117 3118 3121 3122 3122 3121 3125 3122 3121 3128 3130 3130 3132 3133 3134 3135 3136 3137 3138 3139 3140 3141 3142 3143 3144 3145 3147 3149 3150 3151 3152 3153 3154 3155 3155 3156 3156 3155
3109 3110 3111 3111 3113 3112 3113 3114 3114 3114 3113 3111 3114 3117 3120 3120 3120 3119 3122 3120 3128 3128 3129 3130 3131 3132 3133 3134 3136 3137 3138 3139 3140 3141 3142 3143 3144 3146 3148 3149 3150 3152 3153 3154 3155 3155 3155 3155 3155
3108 3108 3110 3109 3109 3109 3110 3110 3112 3113 3111 3110 3112 3115 3118 3118 3116 3117 3118 3120 3121 3124 3126 3128 3129 3130 3131 3133 3133 3135 3136 3137 3139 3140 3141 3142 3143 3145 3147 3148 3150 3151 3153 3153 3154 3155 3155 3155 3156
3106 3108 3108 3106 3106 3107 3107 3107 3108 3109 3110 3110 3109 3112 3115 3116 3113 3113 3115 3117 3116 3120 3121 3123 3127 3128 3129 3130 3132 3133 3134 3135 3137 3139 3140 3141 3142 3144 3146 3147 3149 3150 3152 3153 3154 3155 3155 3155 3156
3105 3104 3104 3102 3104 3105 3106 3104 3103 3105 3106 3108 3108 3108 3108 3113 3110 3109 3111 3114 3116 3115 3116 3118 3122 3125 3126 3127 3129 3130 3131 3132 3134 3137 3139 3140 3141 3143 3145 3147 3148 3150 3152 3153 3154 3155 3155 3156 3156
3103 3102 3101 3100 3101 3102 3102 3101 3100 3101 3102 3103 3102 3101 3104 3105 3105 3104 3106 3112 3112 3110 3114 3113 3117 3120 3122 3123 3125 3127 3129 3130 3131 3134 3137 3138 3140 3141 3143 3145 3147 3150 3151 3152 3154 3155 3155 3156 3157
3101 3100 3099 3099 3098 3098 3098 3097 3096 3096 3097 3098 3096 3095 3098 3099 3098 3098 3100 3105 3108 3107 3110 3110 3111 3116 3117 3119 3121 3123 3126 3127 3128 3131 3134 3136 3138 3140 3142 3144 3147 3149 3150 3151 3153 3154 3155 3156 3157
3100 3099 3097 3097 3096 3096 3094 3093 3092 3091 3092 3092 3092 3088 3092 3095 3092 3091 3092 3098 3101 3102 3102 3108 3106 3111 3113 3114 3116 3118 3121 3123 3125 3127 3130 3133 3135 3137 3139 3142 3145 3148 3150 3151 3152 3154 3155 3156 3157
3098 3098 3095 3095 3093 3093 3092 3089 3089 3087 3085 3086 3085 3084 3086 3087 3087 3085 3086 3090 3093 3096 3096 3100 3102 3104 3107 3108 3111 3113 3116 3119 3121 3123 3126 3129 3132 3134 3137 3140 3143 3145 3148 3150 3151 3152 3154 3155 3156
3096 3095 3093 3091 3090 3089 3088 3087 3085 3082 3081 3081 3079 3079 3079 3078 3079 3079 3079 3082 3084 3087 3089 3091 3096 3098 3101 3103 3105 3108 3110 3113 3117 3120 3122 3125 3128 3131 3134 3137 3140 3143 3146 3148 3150 3151 3153 3155 3156
3092 3091 3090 3089 3087 3084 3083 3082 3080 3078 3076 3076 3073 3072 3073 3072 3071 3072 3073 3075 3077 3078 3081 3083 3087 3091 3094 3096 3099 3102 3104 3108 3112 3115 3117 3120 3123 3127 3131 3134 3137 3140 3143 3146 3149 3151 3152 3154 3156
3088 3087 3086 3084 3082 3080 3079 3077 3076 3073 3072 3070 3068 3066 3066 3066 3065 3065 3065 3066 3068 3070 3072 3077 3079 3082 3086 3089 3092 3095 3099 3103 3107 3111 3113 3115 3120 3124 3127 3131 3134 3137 3141 3144 3146 3149 3151 3153 3155
3084 3084 3082 3081 3078 3076 3075 3073 3069 3070 3067 3066 3063 3062 3061 3060 3060 3059 3059 3060 3060 3061 3063 3070 3072 3074 3079 3081 3084 3088 3092 3097 3102 3105 3108 3112 3116 3120 3123 3126 3130 3134 3137 3140 3144 3146 3149 3152 3153
3082 3080 3077 3076 3075 3072 3071 3070 3065 3067 3063 3061 3058 3057 3055 3054 3053 3052 3052 3052 3053 3054 3055 3061 3064 3067 3070 3075 3078 3081 3086 3091 3096 3099 3102 3107 3112 3115 3118 3122 3126 3131 3134 3137 3141 3144 3147 3149 3151
3077 3075 3073 3072 3071 3068 3065 3064 3062 3061 3058 3054 3053 3051 3049 3047 3046 3045 3045 3043 3046 3047 3049 3051 3056 3059 3063 3067 3068 3074 3079 3083 3087 3092 3095 3101 3106 3110 3114 3118 3122 3126 3130 3133 3137 3141 3143 3147 3148
3073 3071 3069 3068 3066 3064 3062 3056 3058 3057 3054 3049 3049 3047 3044 3042 3039 3038 3037 3036 3038 3039 3040 3043 3048 3051 3055 3058 3045 3055 3068 3074 3080 3084 3088 3094 3100 3104 3108 3112 3116 3121 3124 3129 3133 3136 3140 3143 3146
3069 3067 3065 3063 3062 3061 3059 3051 3052 3051 3047 3044 3043 3041 3039 3036 3033 3031 3030 3030 3031 3032 3033 3036 3040 3043 3046 3045 3040 3036 3051 3061 3070 3076 3081 3087 3093 3098 3103 3108 3111 3115 3119 3124 3128 3133 3136 3139 3142
3064 3063 3062 3060 3060 3057 3053 3046 3045 3045 3043 3040 3039 3037 3034 3031 3028 3025 3025 3025 3026 3026 3027 3030 3034 3037 3038 3038 3025 3029 3035 3038 3050 3068 3075 3080 3085 3092 3097 3101 3106 3110 3114 3118 3124 3128 3131 3134 3138
3059 3057 3056 3055 3056 3051 3047 3043 3039 3039 3037 3036 3036 3033 3030 3027 3024 3022 3021 3021 3021 3022 3023 3025 3029 3031 3030 3033 3030 3021 3035 3039 3041 3060 3069 3072 3078 3084 3090 3095 3100 3105 3109 3114 3118 3122 3125 3129 3133
3057 3054 3050 3048 3049 3046 3043 3038 3035 3033 3033 3033 3031 3030 3027 3024 3021 3019 3017 3018 3017 3018 3019 3020 3023 3025 3025 3026 3028 3021 3036 3035 3032 3037 3058 3063 3070 3077 3084 3090 3095 3100 3104 3107 3111 3116 3120 3125 3129
3051 3048 3045 3044 3042 3041 3037 3032 3031 3032 3031 3028 3028 3027 3025 3022 3019 3016 3015 3014 3014 3012 3013 3015 3019 3020 3020 3019 3020 3018 3031 3038 3039 3034 3046 3055 3063 3070 3079 3085 3090 3095 3099 3104 3108 3112 3116 3121 3126
3042 3043 3040 3039 3039 3036 3036 3030 3025 3025 3026 3026 3025 3024 3023 3020 3017 3014 3013 3012 3010 3010 3009 3012 3014 3015 3016 3018 3014 3015 3024 3031 3032 3034 3038 3050 3058 3063 3069 3077 3083 3088 3094 3098 3103 3108 3113 3117 3121
3039 3036 3036 3035 3034 3032 3030 3031 3019 3020 3021 3023 3021 3022 3020 3018 3014 3012 3010 3009 3007 3006 3005 3006 3009 3011 3011 3010 3017 3013 3022 3026 3027 3031 3035 3043 3050 3056 3063 3071 3076 3082 3087 3092 3096 3102 3107 3112 3116
3035 3032 3031 3030 3030 3029 3020 3022 3016 3016 3016 3017 3016 3018 3019 3017 3014 3010 3008 3006 3005 3003 3002 3003 3003 3005 3008 3008 3010 3006 3010 3014 3021 3021 3024 3032 3044 3052 3058 3065 3071 3077 3082 3087 3092 3097 3103 3107 3110
3029 3029 3027 3028 3027 3022 3015 3018 3013 3015 3014 3013 3013 3016 3016 3015 3013 3010 3007 3005 3002 3001 3000 2998 2999 2999 3003 3006 3008 3006 3008 3014 3018 3022 3024 3029 3042 3047 3053 3060 3065 3071 3076 3082 3086 3091 3097 3101 3105
3028 3028 3028 3026 3022 3019 3017 3014 3011 3013 3012 3010 3011 3012 3013 3012 3011 3008 3005 3003 3001 2998 2996 2995 2996 2998 3000 3001 3006 3006 3010 3015 3016 3019 3022 3026 3032 3041 3050 3056 3061 3065 3071 3076 3080 3086 3091 3095 3099
3025 3025 3024 3021 3019 3018 3013 3013 3013 3009 3009 3009 3008 3009 3009 3009 3007 3005 3003 3000 2998 2995 2994 2992 2992 2995 2997 2998 3000 3003 3006 3010 3012 3015 3017 3019 3025 3032 3042 3049 3056 3060 3065 3070 3075 3080 3084 3088 3092
3023 3022 3021 3018 3016 3012 3005 3003 3001 3005 3006 3006 3006 3005 3005 3004 3003 3002 3000 2996 2994 2992 2990 2988 2988 2991 2995 2995 2997 3001 3002 3007 3008 3009 3012 3014 3023 3029 3034 3040 3048 3054 3059 3063 3069 3073 3077 3081 3085
3020 3018 3019 3017 3014 3010 3008 3002 3001 3001 3002 3001 3001 3000 2999 2998 2998 2998 2997 2994 2990 2988 2986 2984 2985 2987 2988 2991 2991 2992 2993 3001 3004 3007 3010 3015 3020 3024 3028 3035 3040 3046 3052 3057 3061 3066 3069 3073 3078
3013 3014 3014 3014 3012 3009 3010 3008 3004 2999 2998 2998 2999 2996 2994 2994 2994 2994 2993 2990 2988 2984 2982 2982 2982 2982 2982 2984 2986 2988 2991 2992 2998 3001 3006 3009 3015 3019 3024 3030 3034 3037 3043 3049 3054 3058 3061 3065 3070